Weather History for KGEV - January, 2008

Change the Weather History Date:

Wednesday, January 2, 2008

  Actual Average Record
Temperature  
Mean Temperature 16 °F -  
Max Temperature 19 °F 44 °F 62 °F (2005)
Min Temperature 12 °F 24 °F 9 °F (1977)
Degree Days  
Heating Degree Days 50    
Moisture  
Dew Point 5 °F    
Average Humidity 61    
Maximum Humidity 73    
Minimum Humidity 53    
Precipitation  
Precipitation 0.00 in - - ()
Sea Level Pressure  
Sea Level Pressure 30.16 in    
Wind  
Wind Speed 15 mph (NW)    
Max Wind Speed 21 mph    
Max Gust Speed 41 mph    
Visibility 7 miles    
Events Snow    
Averages and records for this station are not official NWS values.
T = Trace of Precipitation, MM = Missing Value Source: NWS Daily Summary

Daily Weather History Graph

Daily Weather History Graph

Search for Another Location

Airport or City:

Trip Planner

Search our weather history database for the weather conditions in past years. The results will help you decide how hot, cold, wet, or windy it might be!

Date:

Astronomy

Jan. 02, 2008 Rise Set
Actual Time 7:37 AM EST 5:21 PM EST
Civil Twilight 7:08 AM EST 5:50 PM EST
Nautical Twilight 6:36 AM EST 6:22 PM EST
Astronomical Twilight 6:05 AM EST 6:53 PM EST
Moon 2:28 AM EST (1/2) 12:56 PM EST (1/2)
Length of Visible Light 10h 41m
Length of Day
9h 44m
Waning Crescent, 28% of the Moon is Illuminated
Jan 2
Waning Crescent
Jan 8
New
Jan 15
First Quarter
Jan 22
Full
Jan 30
Last Quarter

Hourly Weather History & Observations

Time (EST) Temp. Windchill Dew Point Humidity Pressure Visibility Wind Dir Wind Speed Gust Speed Precip Events Conditions
12:01 AM 19.4 °F 7.2 °F 8.6 °F 63% 29.96 in 10.0 mi West 11.5 mph 25.3 mph N/A   Overcast
12:21 AM 19.4 °F 6.6 °F 10.4 °F 68% 29.97 in 1.8 mi NW 12.7 mph 26.5 mph N/A Snow Light Snow
12:41 AM 17.6 °F 5.7 °F 10.4 °F 73% 29.97 in 2.5 mi NNW 10.4 mph 21.9 mph N/A Snow Light Snow
1:01 AM 17.6 °F 3.2 °F 8.6 °F 68% 29.96 in 4.0 mi NNW 15.0 mph 23.0 mph N/A Snow Light Snow
1:21 AM 17.6 °F 5.7 °F 6.8 °F 63% 29.96 in 3.0 mi NNW 10.4 mph 20.7 mph N/A Snow Light Snow
1:41 AM 17.6 °F 2.7 °F 8.6 °F 68% 29.95 in 2.5 mi WNW 16.1 mph 26.5 mph N/A Snow Light Snow
2:02 AM 17.6 °F 4.3 °F 10.4 °F 73% 29.95 in 1.2 mi NW 12.7 mph 28.8 mph N/A Snow Light Snow
2:21 AM 15.8 °F 2.7 °F 6.8 °F 68% 29.96 in 2.0 mi NW 11.5 mph 27.6 mph N/A Snow Light Snow
2:42 AM 15.8 °F 0.3 °F 3.2 °F 58% 29.97 in 4.0 mi NW 16.1 mph 34.5 mph N/A Snow Light Snow
3:02 AM 15.8 °F -0.6 °F 1.4 °F 53% 29.97 in 3.0 mi WNW 18.4 mph 33.4 mph N/A Snow Light Snow
3:21 AM 14.0 °F -0.2 °F 1.4 °F 57% 29.98 in 7.0 mi WNW 12.7 mph 26.5 mph N/A   Overcast
3:42 AM 14.0 °F -0.2 °F 1.4 °F 57% 29.98 in 5.0 mi NW 12.7 mph 25.3 mph N/A Snow Light Snow
4:01 AM 14.0 °F -3.4 °F 1.4 °F 57% 29.98 in 5.0 mi WNW 19.6 mph 31.1 mph N/A Snow Light Snow
4:21 AM 12.2 °F -3.7 °F 1.4 °F 62% 29.97 in 4.0 mi West 15.0 mph 28.8 mph N/A Snow Light Snow
4:41 AM 12.2 °F - 1.4 °F 62% - - North - - N/A   Unknown
5:01 AM - - - N/A% - - North - - N/A   Unknown
5:21 AM - - - N/A% - - North - - N/A   Unknown
5:41 AM - - - N/A% - - North - - N/A   Unknown
6:01 AM - - - N/A% - - North - - N/A   Unknown
6:21 AM - - - N/A% - - North - - N/A   Unknown
6:41 AM - - - N/A% - - North - - N/A   Unknown
7:01 AM - - - N/A% - - North - - N/A   Unknown
7:21 AM - - - N/A% - - North - - N/A   Unknown
7:41 AM - - - N/A% - - North - - N/A   Unknown
8:01 AM - - - N/A% - - North - - N/A   Unknown
8:21 AM - - - N/A% - - North - - N/A   Unknown
8:41 AM - - - N/A% - - North - - N/A   Unknown
9:01 AM - - - N/A% - - North - - N/A   Unknown
9:21 AM - - - N/A% - - North - - N/A   Unknown
9:41 AM - - - N/A% - - North - - N/A   Unknown
10:01 AM - - - N/A% - - North - - N/A   Unknown
10:21 AM - - - N/A% - - North - - N/A   Unknown
10:41 AM - - - N/A% - - North - - N/A   Unknown
11:04 AM - - - N/A% - - North - - N/A   Unknown
11:21 AM - - - N/A% - - North - - N/A   Unknown
11:41 AM - - - N/A% - - North - - N/A   Unknown
12:01 PM - - - N/A% - - North - - N/A   Unknown
12:22 PM - - - N/A% - - North - - N/A   Unknown
12:41 PM - - - N/A% - - North - - N/A   Unknown
1:21 PM 17.6 °F 6.4 °F 3.2 °F 53% 30.16 in 10.0 mi WNW 9.2 mph 17.3 mph N/A   Unknown
1:41 PM 17.6 °F 3.2 °F 3.2 °F 53% 30.16 in 10.0 mi NW 15.0 mph 24.2 mph N/A   Clear
2:01 PM 17.6 °F 2.7 °F 3.2 °F 53% 30.17 in 10.0 mi NW 16.1 mph 29.9 mph N/A   Clear
2:21 PM 17.6 °F 3.2 °F 3.2 °F 53% 30.18 in 10.0 mi NNW 15.0 mph 24.2 mph N/A   Clear
2:41 PM 17.6 °F 1.7 °F 3.2 °F 53% 30.18 in 10.0 mi NW 18.4 mph 32.2 mph N/A   Scattered Clouds
3:01 PM 17.6 °F 3.7 °F 3.2 °F 53% 30.19 in 10.0 mi NW 13.8 mph 25.3 mph N/A   Scattered Clouds
3:21 PM 17.6 °F 3.2 °F 3.2 °F 53% 30.20 in 10.0 mi NW 15.0 mph 31.1 mph N/A   Scattered Clouds
3:41 PM 17.6 °F 2.2 °F 3.2 °F 53% 30.21 in 10.0 mi NW 17.3 mph 31.1 mph N/A   Scattered Clouds
4:01 PM 17.6 °F 3.2 °F 5.0 °F 58% 30.22 in 7.0 mi NW 15.0 mph 33.4 mph N/A   Scattered Clouds
4:22 PM 17.6 °F 1.3 °F 5.0 °F 58% 30.23 in 7.0 mi NNW 19.6 mph 32.2 mph N/A   Mostly Cloudy
4:41 PM 17.6 °F 3.7 °F 6.8 °F 63% 30.24 in 10.0 mi NW 13.8 mph 29.9 mph N/A   Scattered Clouds
5:02 PM 17.6 °F 2.7 °F 6.8 °F 63% 30.25 in 10.0 mi NW 16.1 mph 33.4 mph N/A   Clear
5:21 PM 15.8 °F -1.1 °F 5.0 °F 62% 30.25 in 7.0 mi WNW 19.6 mph 39.1 mph N/A   Scattered Clouds
5:41 PM 15.8 °F -1.5 °F 5.0 °F 62% 30.26 in 5.0 mi NW 20.7 mph 41.4 mph N/A Snow Light Snow
6:01 PM 15.8 °F -1.1 °F 6.8 °F 68% 30.27 in 7.0 mi NW 19.6 mph 31.1 mph N/A Snow Light Snow
6:21 PM 15.8 °F -1.5 °F 5.0 °F 62% 30.27 in 10.0 mi NW 20.7 mph 33.4 mph N/A   Scattered Clouds
6:41 PM 15.8 °F -0.6 °F 5.0 °F 62% 30.29 in 10.0 mi NNW 18.4 mph 38.0 mph N/A   Clear
7:02 PM 15.8 °F -1.1 °F 5.0 °F 62% 30.29 in 10.0 mi NW 19.6 mph 32.2 mph N/A   Clear
7:21 PM 15.8 °F -1.1 °F 5.0 °F 62% 30.29 in 10.0 mi NW 19.6 mph 35.7 mph N/A   Clear
7:41 PM 15.8 °F -0.6 °F 5.0 °F 62% 30.30 in 10.0 mi NW 18.4 mph 32.2 mph N/A   Clear
8:01 PM 15.8 °F 2.1 °F 3.2 °F 58% 30.31 in 10.0 mi NW 12.7 mph 28.8 mph N/A   Clear
8:21 PM 15.8 °F -0.2 °F 5.0 °F 62% 30.33 in 10.0 mi WNW 17.3 mph 36.8 mph N/A   Clear
8:43 PM 15.8 °F -1.5 °F 6.8 °F 68% 30.34 in 5.0 mi WNW 20.7 mph 33.4 mph N/A Snow Light Snow
9:01 PM 15.8 °F -0.2 °F 6.8 °F 68% 30.35 in 7.0 mi WNW 17.3 mph 31.1 mph N/A   Scattered Clouds
9:21 PM 15.8 °F 2.1 °F 6.8 °F 68% 30.36 in 5.0 mi NW 12.7 mph 27.6 mph N/A   Haze
9:41 PM 15.8 °F 2.1 °F 6.8 °F 68% 30.37 in 7.0 mi NW 12.7 mph 25.3 mph N/A Snow Light Snow
10:04 PM 14.0 °F -2.5 °F 3.2 °F 62% 30.37 in 10.0 mi NW 17.3 mph 33.4 mph N/A   Scattered Clouds
10:23 PM 14.0 °F 2.0 °F 3.2 °F 62% 30.38 in 10.0 mi NW 9.2 mph 23.0 mph N/A   Clear
10:41 PM 12.2 °F 0.7 °F 3.2 °F 67% 30.38 in 10.0 mi NW 8.1 mph 19.6 mph N/A   Clear
11:01 PM 12.2 °F 0.7 °F 3.2 °F 67% 30.39 in 10.0 mi WNW 8.1 mph 20.7 mph N/A   Clear
11:21 PM 12.2 °F -1.8 °F 3.2 °F 67% 30.39 in 10.0 mi NW 11.5 mph 21.9 mph N/A   Clear
11:42 PM 12.2 °F -4.3 °F 3.2 °F 67% 30.38 in 10.0 mi NW 16.1 mph 26.5 mph N/A   Clear